Regional Weather Roundup
Issued by NWS Austin/San Antonio, TX

Home | Current Version | Previous Version | Text Only | Print | Product List | Glossary On
Versions: 1 2 3 4 5 6 7 8 9 10 11 12 13 14 15 16 17 18 19 20 21 22 23 24 25 26 27 28 29 30 31 32 33 34 35 36 37 38 39 40 41 42 43 44 45 46 47 48 49 50
883
ASUS44 KEWX 102011
RWREWX
SOUTH TEXAS REGIONAL WEATHER ROUNDUP
NATIONAL WEATHER SERVICE AUSTIN/SAN ANTONIO TX
200 PM CST TUE DEC 10 2019

NOTE: "FAIR" INDICATED FEW OR NO CLOUDS BELOW 12,000 FEET WITH NO
SIGNIFICANT WEATHER AND/OR OBSTRUCTIONS TO VISIBILITY.

* - THESE STATIONS ARE NOT NWS OR FAA STATIONS...AND ARE NOT SUBJECT
    TO NWS AND FAA QUALITY CONTROL.

TXZ171-172-183>190-102100-
TEXAS HILL COUNTRY AND EDWARDS PLATEAU

CITY           SKY/WX    TMP DP  RH WIND       PRES   REMARKS
JUNCTION       CLOUDY    40  37  89 N7        30.31S FOG     WCI  35
*LLANO         CLOUDY    41  37  87 NW6       30.34R WCI  37
BURNET         LGT RAIN  40  38  93 N7        30.30F WCI  35
*HORSESHOE BAY DRIZZLE   41  39  93 N10       30.30R WCI  35
*LAGO VISTA    CLOUDY    40  40  99 N8        30.27S WCI  35
*KERRVILLE     CLOUDY    40  37  89 NW13      30.28R WCI  33
*FREDERICKSBRG CLOUDY    38  37  93 N7        30.28S WCI  33
*ROCKSPRINGS   CLOUDY    41  39  93 VRB6G15   30.30S WCI  37
*BOERNE        CLOUDY    41  41 100 N8        30.27R WCI  36
*CASTROVILLE   CLOUDY    49  40  71 NE13      30.27S WCI  44
HONDO          CLOUDY    47  41  80 N14       30.26R WCI  41
*UVALDE        CLOUDY    49  44  81 N7        30.28S WCI  46
DEL RIO        CLOUDY    50  41  71 NW10      30.30R WCI  46
*LAUGHLIN AFB  NOT AVBL
*SPOFFORD      NOT AVBL
*EAGLE PASS    CLOUDY    52  46  82 N8        30.28R
CARRIZO SPRGS  CLOUDY    52  43  71 NE9       30.25F
*FAITH RANCH   CLOUDY    55  45  67 N8G17     30.24S
$$

TXZ173-191>194-202-209-217>225-228-102100-
CENTRAL AND SOUTH CENTRAL TEXAS

CITY           SKY/WX    TMP DP  RH WIND       PRES   REMARKS
GEORGETOWN     CLOUDY    42  40  92 N12       30.30R WCI  36
*TAYLOR        LGT RAIN  43  41  93 N15       30.28F WCI  36
AUSTIN/BERGSTM CLOUDY    46  42  86 N17       30.26F WCI  39
AUSTIN/MABRY   CLOUDY    46  42  86 VRB6      30.27F WCI  43
*PFLUGERVILLE  CLOUDY    45  41  87 N16       30.27F WCI  37
SAN MARCOS     CLOUDY    46  43  89 N16       30.26S WCI  39
NEW BRAUNFELS  CLOUDY    48  43  82 N15       30.24R WCI  42
*RANDOLPH AFB  NOT AVBL
*SEGUIN        NOT AVBL
SAN ANTONIO    CLOUDY    48  41  76 N13       30.24F WCI  43
STINSON FIELD  CLOUDY    48  43  82 NE12G22   30.22F WCI  43
*KELLY FIELD   NOT AVBL
*PLEASANTON    CLOUDY    48  42  80 N12G23    30.24F WCI  43
*KENEDY        CLOUDY    48  44  87 N16G23    30.23R WCI  41
*LA GRANGE     LGT RAIN  46  46 100 N7        30.23R WCI  43
*GIDDINGS      RAIN      44  43  95 N9G18     30.26R WCI  39
*GONZALES      LGT RAIN  46  45  97 N13G18    30.23S WCI  40
$$

TXZ163>164-176>182-195>201-210>213-226-227-235-102100-
SOUTHEAST TEXAS

CITY           SKY/WX    TMP DP  RH WIND       PRES   REMARKS
COLLEGE STN    RAIN      48  45  89 N15       30.26R WCI  42
*BRYAN         DRIZZLE   47  47 100 N8        30.28R WCI  43
*CALDWELL      LGT RAIN  42  42  99 N16G26    30.27S WCI  35
*CROCKETT      NOT AVBL
*BRENHAM       DRIZZLE   48  46  95 N13G21    30.23S WCI  42
HUNTSVILLE     LGT RAIN  47  44  90 VRB5      30.23F WCI  45
CONROE         LGT RAIN  49  46  90 NE9       30.20R WCI  45
HOUSTON BUSH   CLOUDY    51  47  86 NE16      30.17F FOG
HOUSTON HOBBY  CLOUDY    52  47  83 N20G28    30.15F
*HOUSTON SW AP CLOUDY    50  48  93 N9G17     30.16S WCI  47
PEARLAND       CLOUDY    53  48  83 NE14G26   30.16S
HOUSTON HOOKS  LGT RAIN  49  45  86 N14G21    30.18F WCI  44
ELLINGTON FLD  LGT RAIN  52  48  87 N14       30.13F FOG
SUGAR LAND     LGT RAIN  51  49  92 NE13      30.15F
*HOUSTON EXEC  HVY RAIN  50  48  93 NE16      30.19R WCI  44
*CLEVELAND MUN LGT RAIN  49  47  92 NE5       30.20S WCI  47
*WHARTON       CLOUDY    50  47  92 N14G20    30.16F WCI  44
*COLUMBUS      DRIZZLE   46  42  89 N13       30.20F WCI  40
*EAGLE LAKE    LGT RAIN  50  49  95 N15       30.19  WCI  45
$$

TXZ214>216-236>238-102100-
THE UPPER TEXAS COAST

CITY           SKY/WX    TMP DP  RH WIND       PRES   REMARKS
*ORANGE        RAIN      53  49  86 NE10G26   30.15F
PORT ARTHUR    LGT RAIN  52  50  93 N20G29    30.12S FOG
GALVESTON      LGT RAIN  55  52  89 N24G35    30.14R FOG
ANGLETON       LGT RAIN  52  49  89 N17       30.14R
*BAY CITY      CLOUDY    54  52  92 N16G23    30.13F
PALACIOS       LGT RAIN  51  48  89 N20G29    30.13R FOG
$$

TXZ229>234-239>247-102100-
TEXAS COASTAL BEND AND RIO GRANDE PLAINS

CITY           SKY/WX    TMP DP  RH WIND       PRES   REMARKS
VICTORIA       CLOUDY    50  46  86 N15G23    30.18R WCI  45
*BEEVILLE      NOT AVBL
ROCKPORT       LGT RAIN  53  47  79 N22G29    30.13F
*PORT ARANSAS  CLOUDY    52  50  92 N23       30.14R
*PORT LAVACA   CLOUDY    52  50  93 N20G28    30.15R
*INGLESIDE     CLOUDY    52  51  96 NE18G25   30.13S
CORPUS CHRISTI CLOUDY    51  49  92 N24       30.15R
CORPUS NAS     LGT RAIN  52  52 100 N26G33    30.12S
*ROBSTOWN      CLOUDY    51  48  90 N15G26    30.16R
ALICE          CLOUDY    53  47  79 N15G25    30.16S
KINGSVILLE NAS CLOUDY    52  49  89 N18G28    30.15S
COTULLA        CLOUDY    54  45  71 NE14      30.25R
LAREDO         CLOUDY    57  46  66 N15       30.21R
$$

TXZ248>255-102100-
DEEP SOUTH TEXAS

CITY           SKY/WX    TMP DP  RH WIND       PRES   REMARKS
BROWNSVILLE    CLOUDY    53  50  89 N20G29    30.07R FOG
PORT ISABEL    NOT AVBL
HARLINGEN      CLOUDY    51  49  92 N23G33    30.10R
*HEBBRONVILLE  CLOUDY    53  46  77 CALM      30.19R
MCALLEN        CLOUDY    54  49  83 N14       30.14S
*WESLACO       CLOUDY    51  48  90 N18G29    30.12  FOG
FALFURRIAS     CLOUDY    55  48  79 N20G26    30.15S
EDINBURG       CLOUDY    52  47  84 N23       30.13F
*ZAPATA        CLOUDY    58  46  63 N13G20    30.21R
$$

TXZ213>215-236>238-242>244-246-247-251-254-255-102100-
CMAN STATIONS

STATION/POSITION TIME  TEMP    WIND        PRES    WAVE
                       AIR SEA DIR/SP/G            HT/PER
                 (UTC) (F)     (DEG/KT/KT) (MB)    (FT/S)
SABINE PASS      1924   53 66   10/ 25/ 34 1021.3
SEA RIM ST PARK  2000   52      20/ 21/ 26 1019.6
NORTH JETTY/GLS  1924   55 63   20/ 30/ 34 1018.4
EAGLE POINT      1906   53 64   10/ 17/ 24 1019.6
MORGANS POINT    1924   53 65   20/ 19/ 28 1021.1
PORT O`CONNOR    1924   52 62   20/ 27/ 32 1020.1
PORT ARANSAS     2000   52 66  360/ 25/ 29 1019.9
MALAQUITE BEACH  1924   52 67  350/ 25/ 31 1019.7
BAFFIN BAY       1924   51 68  340/ 21/ 25 1020.2
PORT ISABEL      1918   56 70  330/ 17/ 29 1017.4
$$




USA.gov is the U.S. government's official web portal to all federal, state and local government web resources and services.